Regional Weather Roundup
Issued by NWS State College, PA

Home | Current Version | Previous Version | Text Only | Print | Product List | Glossary On
Versions: 1 2 3 4 5 6 7 8 9 10 11 12 13 14 15 16 17 18 19 20 21 22 23 24 25 26 27 28 29 30 31 32 33 34 35 36 37 38 39 40 41 42 43 44 45 46 47 48 49 50
000
ASUS41 KCTP 302210
RWRCTP

REGIONAL WEATHER ROUNDUP
NATIONAL WEATHER SERVICE STATE COLLEGE PA
600 PM EDT SAT APR 30 2016

Note: "fair" indicates few or no clouds below 12,000 feet with no
significant weather and/or obstructions to visibility.

* = STATION THAT DOES NOT REPORT PRECIPITATION /E.G. RAIN...SNOW...ETC/
    THUNDER OR FOG.

PAZ002>004-007>009-013>016-020>023-029>032-302300-
WESTERN PENNSYLVANIA

CITY           SKY/WX    TMP DP  RH WIND       PRES   REMARKS
ERIE           CLOUDY    55  43  63 NE10      30.07F
MEADVILLE      CLOUDY    58  44  60 E8        30.05F
FRANKLIN*      CLOUDY    57  45  62 E8        30.09F
NEW CASTLE     CLOUDY    62  51  67 CALM      30.05F
BEAVER COUNTY  NOT AVBL
BUTLER*        CLOUDY    61  48  63 E8        30.08S
PITTSBURGH INT LGT RAIN  66  45  46 S5        30.04S
PITTSBURGH     CLOUDY    65  46  50 VRB6      30.04S
INDIANA*       CLOUDY    55  50  82 SE14      30.13R
LATROBE        PTSUNNY   59  50  72 SE12      30.08R
WASHINGTON CO* CLOUDY    63  54  72 CALM      30.05F
$$

PAZ004>006-010>012-017>019-024>028-033>037-041-042-045-046-049>053-302300-
CENTRAL PENNSYLVANIA

CITY           SKY/WX    TMP DP  RH WIND       PRES   REMARKS
BRADFORD       CLOUDY    49  40  71 SE9       30.13S
DUBOIS         CLOUDY    52  43  71 E12       30.11S
CLEARFIELD     CLOUDY    53  43  68 E6        30.14S
JOHNSTOWN      LGT RAIN  48  43  82 SE9       30.11S
ALTOONA        LGT RAIN  51  45  79 S10       30.16R
STATE COLLEGE  CLOUDY    52  43  71 SE5       30.16R
WILLIAMSPORT   CLOUDY    56  41  57 SE3       30.17S
SELINSGROVE    CLOUDY    56  43  61 SE5       30.19R
FT INDIANTOWN  CLOUDY    56  43  61 E5        30.19R
CAPITAL CITY   CLOUDY    58  43  57 SE7       30.18R
HARRISBURG     CLOUDY    58  44  60 SE7       30.18R
YORK           CLOUDY    57  46  66 SE7       30.18R
$$

PAZ038>040-043-044-047-048-054-055-060>062-067>071-302300-
EASTERN PENNSYLVANIA

CITY           SKY/WX    TMP DP  RH WIND       PRES   REMARKS
SCRANTON       CLOUDY    56  40  55 N3        30.18R
MOUNT POCONO   CLOUDY    50  39  66 SW6       30.19R
ALLENTOWN      CLOUDY    57  41  55 SW5       30.20R
QUAKERTOWN*    CLOUDY    57  41  54 CALM      30.22R
READING        CLOUDY    58  41  53 S3        30.19S
LANCASTER      CLOUDY    56  45  66 E7        30.19S
COATESVILLE    CLOUDY    55  45  67 CALM      30.21S
POTTSTOWN      CLOUDY    57  41  55 VRB3      30.22R
BLUE BELL      CLOUDY    55  43  62 CALM      30.20R
DOYLESTOWN     CLOUDY    55  41  59 S3        30.20R
WILLOW GROVE   NOT AVBL
NORTH PHILA    CLOUDY    60  44  55 SE5       30.23R
PHILADELPHIA   CLOUDY    60  42  51 S8        30.22R
$$




USA.gov is the U.S. government's official web portal to all federal, state and local government web resources and services.